Date String (YYYY-MM-DD hh:mm:ss) UTC,Instrument flags,Ambient pressure (hPa),Sample flow (lpm),Bypass flow (lpm),Sample temperature (°C),Ambient temperature (°C),ASC tube jacket temperature (°C),LED temperature (°C),Box temperature (°C),Sample RH (%),Span deviation,Mass concentration (μg/m³),Mass concentration (μg/m³),Mass concentration (μg/m³)
DateTimeUTC,F1_M11,P_M11,Q1_M11,Q2_M11,T1_M11,T2_M11,T3_M11,T4_M11,T5_M11,U1_M11,ZSPAN_M11,X0_M11,X2_M11,X1_M11
2022-12-14 12:00:00,,0814.4,5.03,0.00,22.2,20.4,00.0,31.1,23.9,10.0,0000.0,0011.01,0004.43,0003.91
2022-12-14 12:01:00,,0814.5,4.95,0.00,22.1,20.5,00.0,31.1,23.9,10.0,0000.0,0010.09,0004.38,0003.88
2022-12-14 12:02:00,,0814.3,5.06,0.00,22.1,20.5,00.0,31.1,23.9,10.0,0000.0,0009.52,0004.33,0003.84
2022-12-14 12:03:00,,0814.1,4.95,0.00,22.1,20.4,00.0,31.1,23.9,10.0,0000.0,0009.61,0004.31,0003.82
2022-12-14 12:04:00,,0814.1,5.04,0.00,22.1,20.4,00.0,31.0,23.8,09.9,0000.0,0009.75,0004.36,0003.82
2022-12-14 12:05:00,,0814.0,4.95,0.00,22.1,20.9,00.0,31.0,23.9,09.9,0000.0,0009.65,0004.34,0003.80
2022-12-14 12:06:00,,0814.3,5.02,0.00,22.2,21.9,00.0,31.0,24.1,09.9,0000.0,0009.28,0004.32,0003.79
2022-12-14 12:07:00,,0814.2,4.99,0.00,22.3,22.2,00.0,31.1,24.2,09.8,0000.0,0009.38,0004.34,0003.78
2022-12-14 12:08:00,,0814.1,5.01,0.00,22.3,21.9,00.0,31.1,24.2,09.8,0000.0,0009.56,0004.31,0003.77
2022-12-14 12:09:00,,0814.1,5.01,0.00,22.3,21.6,00.0,31.1,24.1,09.8,0000.0,0010.36,0004.26,0003.74
2022-12-14 12:10:00,,0814.1,4.97,0.00,22.3,21.3,00.0,31.1,24.1,09.8,0000.0,0010.51,0004.26,0003.72
2022-12-14 12:11:00,,0814.3,5.01,0.00,22.3,21.2,00.0,31.1,24.1,09.8,0000.0,0010.05,0004.23,0003.72
2022-12-14 12:12:00,,0814.2,5.00,0.00,22.3,21.0,00.0,31.1,24.1,09.8,0000.0,0010.07,0004.23,0003.70
2022-12-14 12:13:00,,0814.3,5.00,0.00,22.3,20.9,00.0,31.1,24.1,09.8,0000.0,0009.86,0004.26,0003.71
2022-12-14 12:14:00,,0814.2,5.00,0.00,22.2,20.9,00.0,31.1,24.0,09.8,0000.0,0009.80,0004.30,0003.72
2022-12-14 12:15:00,,0814.3,5.00,0.00,22.2,20.8,00.0,31.1,24.0,09.8,0000.0,0010.09,0004.26,0003.71
2022-12-14 12:16:00,,0814.1,5.00,0.00,22.2,20.7,00.0,31.1,24.0,09.8,0000.0,0010.58,0004.26,0003.71
2022-12-14 12:17:00,,0814.2,5.00,0.00,22.2,20.7,00.0,31.1,24.0,09.9,0000.0,0010.65,0004.24,0003.72
2022-12-14 12:18:00,,0814.3,5.00,0.00,22.2,20.7,00.0,31.1,24.0,09.9,0000.0,0010.59,0004.25,0003.74
2022-12-14 12:19:00,,0814.4,5.00,0.00,22.2,20.6,00.0,31.1,24.0,09.9,0000.0,0010.36,0004.30,0003.77
2022-12-14 12:20:00,,0814.3,5.00,0.00,22.2,20.6,00.0,31.0,24.0,09.9,0000.0,0009.44,0004.34,0003.80
2022-12-14 12:21:00,,0814.3,5.00,0.00,22.2,20.7,00.0,31.0,24.0,09.9,0000.0,0009.76,0004.37,0003.84
2022-12-14 12:22:00,,0814.2,5.01,0.00,22.2,21.6,00.0,31.0,24.1,09.9,0000.0,0009.75,0004.44,0003.87
2022-12-14 12:23:00,,0814.4,4.98,0.00,22.3,22.4,00.0,31.1,24.3,09.9,0000.0,0009.75,0004.44,0003.89
2022-12-14 12:24:00,,0814.2,5.01,0.00,22.4,22.3,00.0,31.1,24.4,09.8,0000.0,0009.90,0004.48,0003.91
2022-12-14 12:25:00,,0814.3,4.99,0.00,22.4,21.9,00.0,31.1,24.3,09.8,0000.0,0009.94,0004.46,0003.90
2022-12-14 12:26:00,,0814.5,4.99,0.00,22.4,21.6,00.0,31.1,24.2,09.7,0000.0,0009.71,0004.43,0003.89
2022-12-14 12:27:00,,0814.3,5.01,0.00,22.4,21.4,00.0,31.1,24.2,09.7,0000.0,0009.69,0004.43,0003.89
2022-12-14 12:28:00,,0814.3,5.01,0.00,22.3,21.2,00.0,31.2,24.2,09.7,0000.0,0009.46,0004.44,0003.89
2022-12-14 12:29:00,,0814.6,5.00,0.00,22.3,21.1,00.0,31.1,24.2,09.7,0000.0,0009.44,0004.42,0003.88
2022-12-14 12:30:00,,0814.1,5.00,0.00,22.3,21.0,00.0,31.1,24.1,09.7,0000.0,0009.53,0004.38,0003.86
2022-12-14 12:31:00,,0814.2,5.00,0.00,22.3,20.9,00.0,31.1,24.1,09.7,0000.0,0009.52,0004.35,0003.83
2022-12-14 12:32:00,,0814.1,5.00,0.00,22.3,20.9,00.0,31.1,24.1,09.7,0000.0,0008.99,0004.32,0003.80
2022-12-14 12:33:00,,0814.1,4.97,0.00,22.3,20.9,00.0,31.1,24.1,09.7,0000.0,0008.28,0004.26,0003.78
2022-12-14 12:34:00,,0814.2,5.01,0.00,22.3,20.8,00.0,31.1,24.1,09.7,0000.0,0008.23,0004.23,0003.76
2022-12-14 12:35:00,,0814.3,5.00,0.00,22.3,20.8,00.0,31.1,24.1,09.7,0000.0,0008.00,0004.16,0003.73
2022-12-14 12:36:00,,0814.2,4.99,0.00,22.3,20.8,00.0,31.1,24.1,09.7,0000.0,0007.86,0004.10,0003.71
2022-12-14 12:37:00,,0814.1,5.04,0.00,22.3,20.7,00.0,31.1,24.0,09.7,0000.0,0007.86,0004.09,0003.72
2022-12-14 12:38:00,,0814.2,4.95,0.00,22.3,20.7,00.0,31.1,24.0,09.7,0000.0,0007.30,0004.08,0003.72
2022-12-14 12:39:00,,0814.3,5.05,0.00,22.3,21.1,00.0,31.1,24.1,09.7,0000.0,0007.12,0004.07,0003.72
2022-12-14 12:40:00,,0814.2,4.95,0.00,22.4,22.0,00.0,31.1,24.3,09.6,0000.0,0007.04,0004.05,0003.72
2022-12-14 12:41:00,,0814.7,5.02,0.00,22.5,22.5,00.0,31.1,24.4,09.6,0000.0,0007.41,0004.05,0003.72
2022-12-14 12:42:00,,0814.7,4.97,0.00,22.5,22.2,00.0,31.2,24.4,09.5,0000.0,0008.35,0004.07,0003.72
2022-12-14 12:43:00,,0814.2,5.01,0.00,22.5,21.8,00.0,31.2,24.3,09.6,0000.0,0008.41,0004.08,0003.72
2022-12-14 12:44:00,,0814.2,5.01,0.00,22.5,21.6,00.0,31.2,24.3,09.6,0000.0,0008.46,0004.09,0003.71
2022-12-14 12:45:00,,0814.1,4.98,0.00,22.4,21.4,00.0,31.2,24.2,09.6,0000.0,0008.50,0004.09,0003.72
2022-12-14 12:46:00,,0814.2,4.99,0.00,22.4,21.2,00.0,31.2,24.2,09.5,0000.0,0008.63,0004.12,0003.72
2022-12-14 12:47:00,,0814.5,5.01,0.00,22.4,21.1,00.0,31.2,24.2,09.5,0000.0,0008.80,0004.15,0003.72
2022-12-14 12:48:00,,0814.2,5.01,0.00,22.4,21.0,00.0,31.2,24.2,09.5,0000.0,0008.85,0004.16,0003.72
2022-12-14 12:49:00,,0814.3,5.01,0.00,22.4,20.9,00.0,31.2,24.2,09.5,0000.0,0008.96,0004.18,0003.70
2022-12-14 12:50:00,,0814.3,5.01,0.00,22.4,20.9,00.0,31.2,24.1,09.5,0000.0,0008.97,0004.18,0003.69
2022-12-14 12:51:00,,0814.4,5.01,0.00,22.3,20.8,00.0,31.2,24.1,09.4,0000.0,0009.02,0004.19,0003.68
2022-12-14 12:52:00,,0814.4,5.00,0.00,22.3,20.8,00.0,31.2,24.1,09.4,0000.0,0008.58,0004.18,0003.67
2022-12-14 12:53:00,,0814.4,5.00,0.00,22.3,20.8,00.0,31.2,24.1,09.4,0000.0,0007.54,0004.14,0003.66
2022-12-14 12:54:00,,0814.4,5.00,0.00,22.3,20.7,00.0,31.2,24.1,09.4,0000.0,0007.53,0004.13,0003.64
2022-12-14 12:55:00,,0814.5,5.01,0.00,22.3,20.8,00.0,31.2,24.1,09.4,0000.0,0007.57,0004.11,0003.63
2022-12-14 12:56:00,,0814.4,4.99,0.00,22.3,21.4,00.0,31.2,24.2,09.4,0000.0,0008.22,0004.09,0003.61
2022-12-14 12:57:00,,0814.4,4.99,0.00,22.4,22.3,00.0,31.2,24.4,09.3,0000.0,0008.61,0004.09,0003.61
2022-12-14 12:58:00,,0814.3,5.02,0.00,22.5,22.2,00.0,31.2,24.4,09.3,0000.0,0008.52,0004.08,0003.60
2022-12-14 12:59:00,,0814.4,4.98,0.00,22.5,21.8,00.0,31.2,24.3,09.3,0000.0,0008.60,0004.09,0003.60
